Location: Unspecified
(38.9820°N, 94.4650°W)
Time: 14:26:16
(UTC-05:00)

CZ-3 Stage 3 - Visible Passes

Search period start: 26 April 2015 00:00
Search period end: 06 May 2015 00:00
Orbit: 419 x 34810 km, 31.0° (Epoch: 23 April)

Date Brightness Start Highest point End Pass type
(mag) Time Alt. Az. Time Alt. Az. Time Alt. Az.
28 Apr 7.3 14:23:38 10° WSW 23:04:54 16° WSW 23:20:34 10° WSW visible
01 May 7.5 14:18:57 10° W 22:58:52 14° WSW 23:12:30 10° WSW visible
04 May 7.6 14:14:11 10° W 22:52:46 13° WSW 23:03:33 10° WSW visible
